Location: Yamada Observatory
(36.7980°N, 119.2990°W)
Time: 00:35:50
(UTC-08:00)

Amateur Radio Satellites - All Passes

Search period start: 18 November 2017 00:05
Search period end: 19 November 2017 00:05
Location: Yamada Observatory, 36.7980°N, 119.2990°W

Satellite Date Start Highest point End Downlink Frequencies (MHz)
Time Altitude Azimuth
QB50P2 18 Nov 00:09:15 00:13:24 60° 285° (WNW) 00:17:31 145.880/145.840
AIST 2D 18 Nov 00:11:49 00:13:47 14° 291° (WNW) 00:15:44 435.315
UKube-1 18 Nov 00:16:38 00:19:40 19° 67° (ENE) 00:22:44 .
NO-84 18 Nov 00:18:10 00:22:10 40° 233° (SW) 00:26:02 435.350 FM
PCSat 18 Nov 00:24:17 00:29:32 55° 112° (ESE) 00:34:50 145.827
Gurwin Techsat 1B 18 Nov 00:27:14 00:29:12 12° 91° (E) 00:31:10 435.225
Oscar 19 18 Nov 00:30:13 00:33:51 19° 94° (E) 00:37:27 437.125/150
BUGSAT 1 18 Nov 00:37:06 00:40:55 39° 99° (E) 00:44:40 437.445
50 SAT 18 Nov 00:42:11 00:45:24 71° 77° (ENE) 00:48:38 437.505
O/OREOS (USA 219) 18 Nov 00:58:29 01:01:53 21° 259° (W) 01:05:15 437.305
DX 1 18 Nov 01:01:03 01:05:23 79° 256° (WSW) 01:09:47 434.975-435.025
DUCHIFAT 1 18 Nov 01:05:54 01:08:56 20° 291° (WNW) 01:11:57 145.980
EO-79 18 Nov 01:09:10 01:11:28 15° 294° (WNW) 01:13:47 145.935-145.965
NANOSAT C BR1 18 Nov 01:15:02 01:17:14 14° 294° (WNW) 01:19:26 145.865
BEESAT 18 Nov 01:23:28 01:26:09 15° 64° (ENE) 01:28:50 436.000
ITUPSAT 1 18 Nov 01:30:08 01:33:15 17° 65° (ENE) 01:36:22 437.325
UKube-1 18 Nov 01:51:32 01:55:25 33° 262° (W) 01:59:21 .
Gurwin Techsat 1B 18 Nov 02:04:18 02:09:37 72° 286° (WNW) 02:14:54 435.225
Oscar 19 18 Nov 02:08:26 02:13:19 45° 289° (WNW) 02:18:12 437.125/150
PCSat 18 Nov 02:09:16 02:13:16 21° 310° (NW) 02:17:17 145.827
BUGSAT 1 18 Nov 02:13:47 02:15:53 14° 294° (WNW) 02:17:57 437.445
MOZHAYETS 4 18 Nov 02:15:36 02:20:08 66° 75° (ENE) 02:24:40
M-CUBED/EXP-1 PRIME 18 Nov 02:16:29 02:20:47 41° 104° (ESE) 02:25:09 437.505
RS-15 18 Nov 02:19:20 02:29:19 29° 36° (NE) 02:38:50 29.354- 29.394
AO-7 18 Nov 02:19:22 02:25:53 25° 95° (E) 02:32:22 .
CUBESAT XI-V 18 Nov 02:19:33 02:22:14 16° 66° (ENE) 02:24:55 437.345
BEESAT 3 18 Nov 02:33:11 02:36:30 26° 113° (ESE) 02:39:53 437.485
BEESAT 18 Nov 02:58:46 03:03:26 53° 260° (W) 03:08:07 436.000
ITUPSAT 1 18 Nov 03:06:06 03:10:41 45° 260° (W) 03:15:17 437.325
BEESAT 2 18 Nov 03:35:30 03:39:11 36° 114° (ESE) 03:42:53 435.950
nSIGHT-1 18 Nov 03:37:36 03:40:06 20° 30° (NNE) 03:42:34 .
M-CUBED/EXP-1 PRIME 18 Nov 03:51:39 03:54:50 19° 297° (WNW) 03:58:05 437.505
ITAMSAT 1 18 Nov 03:52:47 03:58:01 82° 284° (WNW) 04:03:12 435.822/435.867
CUBESAT XI-V 18 Nov 03:54:46 03:59:10 47° 261° (W) 04:03:37 437.345
YUBILEINY 18 Nov 03:57:02 04:00:48 13° 76° (ENE) 04:04:33 435.215
AO-85 18 Nov 04:07:12 04:10:33 29° 113° (ESE) 04:13:59 145.980
ISS 18 Nov 04:09:54 04:12:52 31° 34° (NE) 04:15:48 437.550
BEESAT 3 18 Nov 04:10:43 04:13:59 24° 308° (NW) 04:17:16 437.485
AO-7 18 Nov 04:10:52 04:19:06 66° 292° (WNW) 04:27:20 .
DOVE 4 18 Nov 04:19:40 04:24:18 32° 95° (E) 04:28:44 437.250
RS-15 18 Nov 04:31:38 04:43:30 89° 239° (WSW) 04:54:40 29.354- 29.394
KKS-1 18 Nov 04:33:14 04:37:42 77° 258° (WSW) 04:42:12 437.445
CUTE-I 18 Nov 05:01:38 05:04:16 14° 91° (E) 05:06:52 437.470
STARS 18 Nov 05:07:32 05:11:58 82° 258° (WSW) 05:16:25 437.465
nSIGHT-1 18 Nov 05:13:26 05:16:26 39° 226° (SW) 05:19:25 .
BEESAT 2 18 Nov 05:14:07 05:17:00 19° 311° (NW) 05:19:55 435.950
KAITUO 1B 18 Nov 05:20:08 05:22:26 15° 94° (E) 05:24:43 145.475/437.950
XW-2D 18 Nov 05:25:09 05:28:25 26° 97° (E) 05:31:39 145.860 - 145.880
XW-2B 18 Nov 05:39:35 05:43:09 39° 98° (E) 05:46:44 145.730 - 145.750
ISS 18 Nov 05:46:36 05:49:12 22° 229° (SW) 05:51:48 437.550
YUBILEINY 18 Nov 05:47:22 05:56:04 83° 95° (E) 06:04:54 435.215
AO-85 18 Nov 05:47:59 05:50:56 20° 310° (NW) 05:53:59 145.980
HO-68 18 Nov 05:57:17 06:02:46 23° 94° (E) 06:08:12 435.675
DOVE 4 18 Nov 05:57:27 06:01:47 27° 292° (WNW) 06:05:58 437.250
LilacSat-2 18 Nov 06:02:22 06:06:12 89° 263° (W) 06:10:03 437.200
XW-2C 18 Nov 06:04:46 06:08:35 90° 287° (WNW) 06:12:24 145.795 - 145.815
AO-7 18 Nov 06:06:48 06:10:16 13° 311° (NW) 06:13:45 .
NUDT-PHONESAT 18 Nov 06:09:42 06:13:23 68° 101° (E) 06:17:04 437.300
XW-2F 18 Nov 06:18:48 06:22:34 62° 283° (WNW) 06:26:18 145.980 - 146.000
CUTE 1.7 + AOD 2 18 Nov 06:27:18 06:31:09 32° 97° (E) 06:35:00 437.475
CUTE-I 18 Nov 06:39:24 06:44:43 65° 286° (WNW) 06:50:00 437.470
STRAND 1 18 Nov 06:40:13 06:45:21 89° 80° (E) 06:50:33 437.568
RS-15 18 Nov 06:46:49 06:54:05 20° 261° (W) 07:01:10 29.354- 29.394
CUBEBUG 2 18 Nov 06:47:59 06:51:41 30° 96° (E) 06:55:20 437.445
KAITUO 1B 18 Nov 06:53:08 06:56:25 29° 288° (WNW) 06:59:41 145.475/437.950
XW-2A 18 Nov 06:53:15 06:55:12 15° 94° (E) 06:57:09 145.665 - 145.685
XW-2D 18 Nov 06:59:47 07:02:21 18° 291° (WNW) 07:04:55 145.860 - 145.880
SEEDS 18 Nov 07:04:19 07:08:29 53° 100° (E) 07:12:38 437.485
AO-73 18 Nov 07:08:47 07:10:27 12° 92° (E) 07:12:06 145.935
XW-2B 18 Nov 07:15:18 07:16:57 12° 293° (WNW) 07:18:35 145.730 - 145.750
FO-29 18 Nov 07:18:48 07:24:53 49° 69° (ENE) 07:31:44 435.910
AAUSAT CUBESAT 2 18 Nov 07:21:49 07:25:39 34° 97° (E) 07:29:28 437.432
SO-50 18 Nov 07:22:05 07:26:44 72° 58° (ENE) 07:31:26 436.795
Oscar 11 18 Nov 07:28:32 07:30:58 15° 93° (E) 07:33:24 .
HO-68 18 Nov 07:43:48 07:50:51 60° 290° (WNW) 07:57:50 435.675
YUBILEINY 18 Nov 07:48:11 07:53:55 19° 294° (WNW) 07:59:44 435.215
ZACube-1 18 Nov 07:49:45 07:53:44 45° 99° (E) 07:57:42 437.345
UWE-3 18 Nov 07:51:40 07:55:49 82° 283° (WNW) 07:59:57 435.000/436.395/437.385
CUTE 1.7 + AOD 2 18 Nov 08:03:44 08:06:43 19° 292° (WNW) 08:09:42 437.475
UNISAT 6 18 Nov 08:17:43 08:21:38 28° 70° (ENE) 08:25:30 437.425
TIGRISAT 18 Nov 08:22:57 08:26:55 29° 71° (ENE) 08:30:50 435.000
XW-2A 18 Nov 08:25:08 08:27:52 23° 288° (WNW) 08:30:34 145.665 - 145.685
CUBEBUG 2 18 Nov 08:25:10 08:28:04 18° 292° (WNW) 08:30:56 437.445
DELFI C3 18 Nov 08:25:58 08:27:24 12° 92° (E) 08:28:50 145.870
Max Valier Satellite 18 Nov 08:40:00 08:40:37 10° 92° (E) 08:41:13 145.860
SEEDS 18 Nov 08:42:05 08:43:40 12° 295° (WNW) 08:45:14 437.485
AO-73 18 Nov 08:42:57 08:46:53 44° 286° (WNW) 08:50:50 145.935
PRISM 18 Nov 08:44:04 08:46:47 17° 67° (ENE) 08:49:32 437.425
AAUSAT CUBESAT 2 18 Nov 08:58:04 09:00:48 17° 292° (WNW) 09:03:31 437.432
Oscar 11 18 Nov 09:03:11 09:07:15 41° 287° (WNW) 09:11:18 .
FO-29 18 Nov 09:05:02 09:10:13 26° 269° (W) 09:15:56 435.910
SO-50 18 Nov 09:05:27 09:06:35 11° 253° (WSW) 09:07:44 436.795
PCSat 18 Nov 09:14:46 09:19:24 28° 53° (NE) 09:24:00 145.827
ZACube-1 18 Nov 09:27:42 09:29:35 13° 294° (WNW) 09:31:30 437.345
FALCONSAT 3 18 Nov 09:42:54 09:45:01 15° 151° (SSE) 09:47:08 435.103
UNISAT 6 18 Nov 09:54:28 09:58:15 25° 264° (W) 10:01:59 437.425
DELFI C3 18 Nov 09:58:31 10:02:20 43° 286° (WNW) 10:06:07 145.870
TIGRISAT 18 Nov 09:59:50 10:03:33 24° 265° (W) 10:07:12 435.000
Max Valier Satellite 18 Nov 10:11:09 10:14:36 40° 286° (WNW) 10:18:02 145.860
EO-88 18 Nov 10:17:05 10:20:37 49° 285° (WNW) 10:24:09 145.990 - 145.960
PRISM 18 Nov 10:18:04 10:21:46 33° 262° (W) 10:25:31 437.425
DUCHIFAT 1 18 Nov 10:19:59 10:22:40 17° 67° (ENE) 10:25:22 145.980
EO-79 18 Nov 10:22:25 10:25:47 23° 69° (ENE) 10:29:10 145.935-145.965
NANOSAT C BR1 18 Nov 10:27:51 10:31:15 24° 70° (ENE) 10:34:38 145.865
POLYITAN 1 18 Nov 10:36:17 10:40:06 33° 72° (ENE) 10:43:55 437.675
AIST 2D 18 Nov 10:41:53 10:45:17 56° 260° (W) 10:48:42 435.315
LO-87 18 Nov 10:52:00 10:55:23 42° 99° (E) 10:58:44 145.935 - 145.965
PCSat 18 Nov 10:57:52 11:02:50 38° 250° (WSW) 11:07:46 145.827
QB50P2 18 Nov 10:58:50 11:03:04 71° 76° (ENE) 11:07:19 145.880/145.840
FALCONSAT 3 18 Nov 11:20:06 11:23:39 45° 165° (SSE) 11:27:12 435.103
ESTCUBE 1 18 Nov 11:21:15 11:25:46 69° 101° (E) 11:30:17 437.505/2401.250
BUGSAT 1 18 Nov 11:24:40 11:27:53 22° 69° (ENE) 11:31:06 437.445
SPROUT 18 Nov 11:42:19 11:45:51 25° 96° (E) 11:49:21 437.525
Oscar 19 18 Nov 11:44:52 11:48:48 23° 67° (ENE) 11:52:44 437.125/150
Gurwin Techsat 1B 18 Nov 11:45:31 11:48:51 17° 64° (ENE) 11:52:11 435.225
DUCHIFAT 1 18 Nov 11:54:07 11:58:01 36° 262° (W) 12:01:55 145.980
BEESAT 2 18 Nov 11:56:21 11:58:10 13° 46° (NE) 11:59:58 435.950
VELOX 1 18 Nov 11:56:31 12:00:06 23° 96° (E) 12:03:38 145.980
EO-79 18 Nov 11:57:52 12:01:24 25° 264° (W) 12:04:57 145.935-145.965
NANOSAT C BR1 18 Nov 12:03:19 12:06:49 25° 264° (W) 12:10:19 145.865
POLYITAN 1 18 Nov 12:13:03 12:15:55 18° 266° (W) 12:18:48 437.675
BEESAT 3 18 Nov 12:28:26 12:32:23 87° 241° (WSW) 12:36:14 437.485
AO-85 18 Nov 12:39:41 12:43:03 19° 49° (NE) 12:46:35 145.980
DX 1 18 Nov 12:52:13 12:55:31 21° 95° (E) 12:58:47 434.975-435.025
FALCONSAT 3 18 Nov 12:58:55 13:02:36 73° 180° (S) 13:06:18 435.103
BUGSAT 1 18 Nov 12:59:27 13:03:03 27° 263° (W) 13:06:39 437.445
M-CUBED/EXP-1 PRIME 18 Nov 13:00:41 13:03:39 27° 65° (ENE) 13:06:48 437.505
ESTCUBE 1 18 Nov 13:00:56 13:01:57 11° 297° (WNW) 13:02:58 437.505/2401.250
AO-7 18 Nov 13:16:08 13:22:58 30° 59° (ENE) 13:29:48 .
SPROUT 18 Nov 13:18:13 13:21:36 23° 291° (WNW) 13:24:57 437.525
Gurwin Techsat 1B 18 Nov 13:23:05 13:28:17 57° 259° (W) 13:33:31 435.225
Oscar 19 18 Nov 13:23:07 13:27:51 38° 262° (W) 13:32:36 437.125/150
O/OREOS (USA 219) 18 Nov 13:27:59 13:32:29 58° 107° (ESE) 13:37:01 437.305
ITAMSAT 1 18 Nov 13:32:00 13:34:39 14° 62° (ENE) 13:37:18 435.822/435.867
BEESAT 2 18 Nov 13:32:18 13:36:16 61° 243° (WSW) 13:40:10 435.950
VELOX 1 18 Nov 13:32:40 13:36:28 28° 290° (WNW) 13:40:14 145.980
50 SAT 18 Nov 13:33:39 13:36:53 87° 103° (ESE) 13:40:05 437.505
UKube-1 18 Nov 13:40:14 13:44:23 44° 100° (E) 13:48:31 .
MOZHAYETS 4 18 Nov 14:13:51 14:16:58 18° 94° (E) 14:20:04
AO-85 18 Nov 14:19:02 14:23:43 54° 244° (WSW) 14:28:41 145.980
DX 1 18 Nov 14:27:50 14:31:40 30° 290° (WNW) 14:35:29 434.975-435.025
M-CUBED/EXP-1 PRIME 18 Nov 14:36:09 14:38:08 15° 263° (W) 14:40:13 437.505
FALCONSAT 3 18 Nov 14:38:01 14:41:34 45° 195° (SSW) 14:45:06 435.103
BEESAT 18 Nov 15:01:03 15:05:37 45° 100° (E) 15:10:08 436.000
AO-7 18 Nov 15:07:04 15:15:11 59° 256° (WSW) 15:23:22 .
ITAMSAT 1 18 Nov 15:08:17 15:13:29 68° 258° (WSW) 15:18:42 435.822/435.867
ITUPSAT 1 18 Nov 15:08:35 15:13:14 53° 100° (E) 15:17:52 437.325
O/OREOS (USA 219) 18 Nov 15:09:56 15:12:16 14° 304° (WNW) 15:14:36 437.305
UKube-1 18 Nov 15:17:36 15:19:59 15° 295° (WNW) 15:22:22 .
DOVE 4 18 Nov 15:22:27 15:26:27 25° 68° (ENE) 15:30:36 437.250
NO-84 18 Nov 15:30:24 15:34:01 72° 132° (SE) 15:37:58 435.350 FM
JUGNU 18 Nov 15:36:37 15:38:17 11° 169° (S) 15:39:55 437.505
MOZHAYETS 4 18 Nov 15:50:00 15:54:12 37° 288° (WNW) 15:58:24
CUBESAT XI-V 18 Nov 15:53:12 15:57:45 49° 99° (E) 16:02:18 437.345
YUBILEINY 18 Nov 16:00:54 16:08:56 37° 74° (ENE) 16:16:53 435.215
FALCONSAT 3 18 Nov 16:18:02 16:20:12 15° 209° (SSW) 16:22:21 435.103
XW-2B 18 Nov 16:19:48 16:21:46 14° 68° (ENE) 16:23:45 145.730 - 145.750
CUTE-I 18 Nov 16:20:46 16:24:29 19° 65° (ENE) 16:28:13 437.470
HO-68 18 Nov 16:26:02 16:29:33 14° 55° (NE) 16:33:03 435.675
KKS-1 18 Nov 16:27:01 16:30:37 23° 96° (E) 16:34:11 437.445
BEESAT 18 Nov 16:39:54 16:43:00 17° 295° (WNW) 16:46:04 436.000
LilacSat-2 18 Nov 16:42:00 16:45:16 29° 72° (ENE) 16:48:33 437.200
XW-2C 18 Nov 16:43:47 16:47:00 28° 72° (ENE) 16:50:15 145.795 - 145.815
RS-15 18 Nov 16:44:42 16:51:17 16° 97° (E) 16:57:51 29.354- 29.394
NUDT-PHONESAT 18 Nov 16:46:53 16:49:36 20° 70° (ENE) 16:52:20 437.300
ITUPSAT 1 18 Nov 16:47:55 16:50:35 15° 296° (WNW) 16:53:14 437.325
XW-2F 18 Nov 16:57:01 17:00:27 38° 74° (ENE) 17:03:56 145.980 - 146.000
DOVE 4 18 Nov 16:59:28 17:03:53 34° 264° (W) 17:08:32 437.250
STARS 18 Nov 16:59:53 17:03:12 21° 95° (E) 17:06:29 437.465
NO-84 18 Nov 17:09:12 17:11:49 17° 331° (NNW) 17:14:32 435.350 FM
CUTE 1.7 + AOD 2 18 Nov 17:18:25 17:21:12 17° 68° (ENE) 17:23:59 437.475
JUGNU 18 Nov 17:23:24 17:26:25 14° 180° (S) 17:29:27 437.505
KAITUO 1B 18 Nov 17:29:47 17:33:26 84° 81° (E) 17:37:09 145.475/437.950
CUBESAT XI-V 18 Nov 17:31:57 17:34:40 15° 294° (WNW) 17:37:23 437.345
XW-2D 18 Nov 17:37:14 17:40:51 49° 260° (W) 17:44:30 145.860 - 145.880
CUBEBUG 2 18 Nov 17:43:42 17:47:14 22° 69° (ENE) 17:50:42 437.445
XW-2B 18 Nov 17:52:15 17:55:38 33° 263° (W) 17:59:01 145.730 - 145.750
SEEDS 18 Nov 17:53:50 17:57:18 26° 71° (ENE) 18:00:47 437.485
YUBILEINY 18 Nov 17:57:33 18:05:45 45° 272° (W) 18:13:56 435.215
CUTE-I 18 Nov 17:58:55 18:04:05 50° 260° (W) 18:09:20 437.470
KKS-1 18 Nov 18:03:18 18:07:06 28° 291° (WNW) 18:10:52 437.445
HO-68 18 Nov 18:08:57 18:16:08 81° 73° (ENE) 18:23:22 435.675
AAUSAT CUBESAT 2 18 Nov 18:10:20 18:13:01 17° 68° (ENE) 18:15:43 437.432
LilacSat-2 18 Nov 18:17:20 18:19:33 15° 266° (W) 18:21:48 437.200
XW-2C 18 Nov 18:18:56 18:21:12 15° 266° (W) 18:23:28 145.795 - 145.815
NUDT-PHONESAT 18 Nov 18:20:32 18:23:19 21° 265° (W) 18:26:07 437.300
XW-2F 18 Nov 18:33:37 18:34:43 11° 268° (W) 18:35:49 145.980 - 146.000
STARS 18 Nov 18:35:41 18:39:32 30° 290° (WNW) 18:43:20 437.465
ZACube-1 18 Nov 18:43:14 18:46:55 27° 71° (ENE) 18:50:32 437.345
UWE-3 18 Nov 18:45:35 18:50:02 58° 75° (ENE) 18:54:21 435.000/436.395/437.385
RS-15 18 Nov 18:49:28 19:01:42 78° 116° (ESE) 19:13:58 29.354- 29.394
XW-2A 18 Nov 18:52:53 18:56:11 66° 76° (ENE) 18:59:28 145.665 - 145.685
CUTE 1.7 + AOD 2 18 Nov 18:52:57 18:56:45 33° 263° (W) 19:00:34 437.475
STRAND 1 18 Nov 18:53:22 18:58:04 36° 98° (E) 19:02:44 437.568
SRMSAT 18 Nov 19:02:44 19:05:22 13° 172° (S) 19:08:00 437.500
JUGNU 18 Nov 19:12:43 19:14:35 11° 190° (S) 19:16:27 437.505
CUBEBUG 2 18 Nov 19:19:28 19:23:38 32° 263° (W) 19:27:42 437.445
SEEDS 18 Nov 19:29:44 19:32:54 21° 265° (W) 19:36:07 437.485
AO-73 18 Nov 19:35:15 19:39:37 84° 258° (WSW) 19:43:54 145.935
AAUSAT CUBESAT 2 18 Nov 19:44:28 19:48:10 33° 263° (W) 19:51:56 437.432
Oscar 11 18 Nov 19:54:55 19:59:12 76° 259° (W) 20:03:30 .
HO-68 18 Nov 20:00:27 20:04:32 16° 269° (W) 20:08:39 435.675
nSIGHT-1 18 Nov 20:13:50 20:15:58 17° 129° (SE) 20:18:05 .
FO-29 18 Nov 20:15:07 20:22:53 59° 99° (E) 20:30:09 435.910
ZACube-1 18 Nov 20:19:40 20:23:07 23° 265° (W) 20:26:32 437.345
UWE-3 18 Nov 20:25:28 20:26:44 11° 269° (W) 20:28:00 435.000/436.395/437.385
STRAND 1 18 Nov 20:32:59 20:37:01 24° 293° (WNW) 20:41:01 437.568
DELFI C3 18 Nov 20:40:38 20:44:32 70° 77° (ENE) 20:48:31 145.870
Max Valier Satellite 18 Nov 20:46:58 20:50:32 54° 76° (ENE) 20:54:06 145.860
ISS 18 Nov 20:48:04 20:51:01 31° 133° (SE) 20:53:58 437.550
SRMSAT 18 Nov 20:50:32 20:53:43 15° 183° (S) 20:56:54 437.500
EO-88 18 Nov 20:51:55 20:55:19 41° 74° (ENE) 20:58:45 145.990 - 145.960
RS-15 18 Nov 21:04:33 21:15:26 35° 319° (NW) 21:26:16 29.354- 29.394
LO-87 18 Nov 21:26:58 21:28:41 13° 68° (ENE) 21:30:23 145.935 - 145.965
SO-50 18 Nov 21:34:15 21:38:22 38° 114° (ESE) 21:42:32 436.795
UNISAT 6 18 Nov 21:47:26 21:51:44 84° 101° (E) 21:55:58 437.425
nSIGHT-1 18 Nov 21:48:55 21:51:58 39° 324° (NW) 21:55:01 .
TIGRISAT 18 Nov 21:52:34 21:56:51 87° 97° (E) 22:01:05 435.000
FO-29 18 Nov 22:00:53 22:07:18 29° 297° (WNW) 22:13:30 435.910
PRISM 18 Nov 22:01:07 22:05:00 36° 98° (E) 22:08:50 437.425
NO-84 18 Nov 22:05:24 22:08:48 22° 33° (NNE) 22:12:11 435.350 FM
AIST 2D 18 Nov 22:10:36 22:11:51 11° 93° (E) 22:13:06 435.315
ESTCUBE 1 18 Nov 22:18:14 22:22:30 46° 73° (ENE) 22:26:47 437.505/2401.250
ISS 18 Nov 22:24:45 22:27:30 24° 329° (NNW) 22:30:16 437.550
SPROUT 18 Nov 22:34:07 22:36:38 15° 66° (ENE) 22:39:08 437.525
SRMSAT 18 Nov 22:41:15 22:42:03 10° 193° (SSW) 22:42:50 437.500
QB50P2 18 Nov 22:47:35 22:49:38 13° 92° (E) 22:51:42 145.880/145.840
VELOX 1 18 Nov 22:52:08 22:54:53 16° 66° (ENE) 22:57:39 145.980
LO-87 18 Nov 22:58:27 23:01:45 33° 262° (W) 23:05:03 145.935 - 145.965
SO-50 18 Nov 23:15:29 23:18:55 21° 311° (NW) 23:22:25 436.795
RS-15 18 Nov 23:26:33 23:33:24 16° 353° (N) 23:40:08 29.354- 29.394
PRISM 18 Nov 23:37:21 23:39:56 16° 293° (WNW) 23:42:30 437.425
DUCHIFAT 1 18 Nov 23:39:58 23:43:52 38° 98° (E) 23:47:43 145.980
O/OREOS (USA 219) 18 Nov 23:40:20 23:44:53 75° 69° (ENE) 23:49:22 437.305
AIST 2D 18 Nov 23:41:55 23:45:06 33° 286° (WNW) 23:48:18 435.315
NO-84 18 Nov 23:42:15 23:46:27 55° 230° (SW) 23:50:31 435.350 FM
EO-79 18 Nov 23:43:48 23:47:57 58° 101° (E) 23:52:03 145.935-145.965
DX 1 18 Nov 23:46:23 23:48:43 14° 65° (ENE) 23:51:04 434.975-435.025
NANOSAT C BR1 18 Nov 23:48:50 23:52:58 58° 101° (E) 23:57:04 145.865
PCSat 18 Nov 23:53:46 23:58:44 38° 110° (ESE) 00:03:43 145.827
ESTCUBE 1 18 Nov 23:57:08 23:59:29 14° 268° (W) 00:01:53 437.505/2401.250
50 SAT 18 Nov 23:59:21 00:01:23 16° 70° (ENE) 00:03:26 437.505
